Vorticity
23 3 -15 -9 17 12 7 16 5 6 4 5 3 2 5 7 9 11 8 7 8 4 9 11 14 13 13 13 9 10 6 8 5 9 6 4 4 3 2 6 5 5 0 16 3
10 25 -17 -14 10 10 -1 12 6 8 10 10 12 12 8 5 9 3 12 17 16 15 13 12 12 9 10 8 6 5 6 13 -3 8 12 11 1 5 -4 -4 4 7 3 1 13
12 11 27 12 -53 24 1 1 1 8 7 9 9 5 7 8 7 16 0 -0 4 11 11 11 11 12 12 11 6 6 5 6 4 6 6 8 4 11 11 6 -1 -0 9 -4 -1
18 19 26 8 12 17 1 5 12 7 9 0 10 13 9 8 8 3 9 9 10 9 9 7 7 11 11 11 12 7 11 13 10 16 13 12 13 7 -1 8 7 -0 -0 6 9
21 14 13 14 8 -14 3 24 5 9 8 8 2 4 5 9 5 10 10 10 9 9 8 7 8 8 5 12 10 8 11 9 7 6 6 8 10 8 11 8 3 5 4 4 2
7 9 36 15 35 -7 21 14 7 -5 4 -6 2 7 8 4 14 9 8 10 11 10 9 10 8 8 6 11 8 0 8 8 6 7 6 5 8 7 9 11 14 13 9 8 4
14 8 20 20 21 10 34 -56 7 11 3 2 7 6 10 11 11 11 11 9 8 8 7 8 9 8 6 12 14 6 5 8 8 7 2 3 6 8 3 4 9 11 9 12 14
14 7 22 20 10 20 8 1 5 8 1 11 6 9 2 16 12 10 10 9 9 9 8 7 7 8 9 6 1 1 7 8 10 12 14 16 4 5 6 11 13 9 11 8 12
7 21 27 22 -20 5 11 11 -4 15 8 5 10 9 14 10 9 11 9 8 7 6 9 9 9 8 10 8 7 15 -1 3 18 13 7 8 2 13 11 12 9 9 16 14 8
4 20 1 38 -6 15 4 20 4 9 7 11 11 6 13 14 11 6 6 7 7 6 6 8 5 6 7 6 -7 -2 -1 1 -6 -2 7 5 12 10 9 7 2 4 7 4 14
25 20 -12 15 30 19 12 -9 10 6 8 14 10 17 16 10 5 8 7 8 10 9 5 5 8 4 10 2 14 7 2 3 9 7 7 8 13 17 20 17 11 11 8 5 -1
16 10 12 19 1 10 -1 2 14 5 15 14 15 9 7 8 7 5 6 12 9 3 4 4 4 19 13 13 8 2 2 2 6 10 4 7 7 2 14 13 15 16 15 18 23
15 -1 5 28 2 1 9 9 12 16 13 7 10 8 7 8 4 11 7 10 11 12 11 7 -3 14 11 10 10 10 5 5 12 7 9 19 36 44 6 1 34 21 35 23 15
9 6 2 5 11 7 7 8 5 -4 4 10 6 5 5 1 5 8 10 11 13 9 11 24 3 6 11 12 9 -1 3 11 10 15 6 -26 -25 16 10 22 11 36 31 37 23
1 1 1 2 3 10 16 2 8 -5 -0 4 8 11 13 10 6 10 6 9 9 14 6 11 11 5 10 10 5 -8 13 4 6 4 17 54 9 -16 -12 53 -4 35 18 7 22
2 1 4 2 13 5 9 14 -3 2 13 12 11 5 7 7 7 11 13 7 15 23 11 13 7 10 4 8 21 6 11 32 53 52 23 43 -5 1 31 3 1 68 12 10 15
6 4 3 0 15 14 10 1 -0 17 2 12 8 4 12 6 3 2 1 10 13 25 -2 30 0 9 9 11 24 7 12 12 14 11 -4 -5 28 -29 8 -20 36 20 16 7 35
8 6 4 13 6 7 15 6 14 12 17 11 4 6 6 14 2 7 0 6 5 12 16 -0 3 18 5 15 1 29 22 3 11 5 -18 65 -2 -16 1 57 21 33 12 9 15
7 14 9 6 9 13 15 11 17 -3 9 11 5 6 12 9 9 13 19 2 7 14 17 5 -0 12 12 17 32 9 -5 6 5 28 15 4 7 13 26 30 15 26 10 6 6
13 7 10 11 17 22 9 19 18 13 7 -5 5 10 7 10 6 16 11 -10 11 15 13 2 12 2 -2 4 15 20 24 16 18 8 13 7 10 -43 24 30 13 35 5 7 6
12 13 10 21 16 19 10 18 8 3 -1 7 10 7 5 4 8 4 3 3 9 13 8 17 8 -6 6 -3 7 27 2 34 22 13 5 8 -8 29 10 28 23 23 21 10 1
11 13 4 18 9 3 4 2 8 9 11 6 7 5 4 10 -1 4 7 8 7 16 10 6 5 16 -0 -10 18 -2 15 15 22 -17 24 10 -22 27 39 23 15 22 16 25 33
5 16 15 21 14 10 6 3 6 6 1 4 13 7 7 2 14 6 9 9 9 10 6 12 -2 10 15 3 -22 23 6 16 32 25 -23 39 -36 32 23 24 31 44 27 19 19
11 19 4 13 13 9 6 4 8 10 14 8 11 3 5 5 3 0 7 8 8 8 10 12 8 8 4 -4 -8 -5 10 3 16 14 3 1 2 15 3 20 4 39 13 46 24
17 5 14 7 6 6 12 8 7 7 14 2 5 6 10 12 11 6 6 12 6 11 12 6 5 3 11 12 10 -7 10 9 -0 8 24 16 3 12 24 -1 31 -9 14 8 79
10 18 8 12 10 7 8 8 5 8 9 9 8 8 9 9 7 5 5 6 6 7 11 8 3 5 21 5 2 18 1 10 5 2 -0 6 2 9 9 23 13 3 27 -13 19
6 8 13 7 10 12 12 9 9 7 12 8 7 8 8 9 18 17 9 6 7 7 8 8 7 11 10 -3 18 24 6 8 2 8 3 2 7 7 7 8 7 9 24 -8 -9
Height
3041 3045 3044 3048 3050 3054 3059 3063 3066 3067 3069 3070 3071 3072 3073 3075 3077 3077 3077 3076 3076 3076 3077 3078 3079 3080 3082 3083 3084 3086 3086 3082 3084 3087 3090 3096 3095 3095 3094 3096 3098 3101 3101 3104 3106
3033 3036 3039 3044 3044 3049 3055 3059 3062 3064 3066 3068 3068 3069 3071 3073 3074 3073 3073 3072 3073 3073 3073 3074 3075 3076 3079 3080 3081 3081 3078 3079 3081 3084 3085 3090 3088 3089 3089 3088 3090 3092 3094 3095 3097
3026 3029 3033 3040 3040 3043 3050 3055 3059 3062 3064 3066 3067 3067 3069 3070 3072 3070 3070 3070 3070 3070 3071 3071 3073 3075 3077 3077 3076 3076 3072 3077 3078 3081 3081 3079 3079 3081 3080 3080 3083 3084 3086 3088 3090
3022 3025 3030 3035 3040 3044 3047 3053 3056 3060 3062 3064 3064 3065 3066 3067 3070 3067 3067 3066 3067 3067 3068 3069 3070 3072 3074 3074 3076 3073 3071 3073 3074 3075 3074 3073 3073 3071 3071 3072 3076 3076 3078 3080 3082
3021 3023 3027 3030 3035 3038 3044 3048 3054 3058 3060 3062 3063 3063 3065 3066 3066 3064 3064 3064 3064 3065 3066 3067 3068 3069 3070 3070 3070 3066 3068 3067 3067 3067 3066 3066 3064 3064 3063 3068 3067 3069 3071 3072 3073
3020 3021 3024 3028 3034 3041 3045 3046 3054 3057 3058 3060 3061 3062 3063 3064 3062 3061 3061 3062 3062 3063 3063 3065 3066 3067 3067 3068 3067 3064 3063 3063 3062 3062 3062 3061 3058 3059 3055 3060 3060 3062 3060 3061 3062
3020 3021 3023 3029 3032 3040 3043 3046 3052 3055 3058 3059 3059 3059 3060 3061 3059 3058 3059 3060 3060 3061 3063 3064 3066 3066 3066 3066 3063 3061 3059 3059 3059 3059 3056 3058 3046 3045 3050 3050 3049 3049 3048 3048 3050
3020 3020 3023 3029 3036 3042 3045 3050 3053 3055 3056 3057 3057 3057 3057 3056 3056 3057 3058 3059 3060 3061 3062 3063 3064 3064 3063 3062 3060 3058 3057 3053 3053 3054 3053 3052 3029 3039 3040 3039 3038 3038 3038 3038 3040
3020 3021 3025 3032 3037 3043 3046 3048 3051 3052 3053 3055 3056 3056 3057 3056 3057 3058 3059 3060 3060 3060 3060 3061 3061 3061 3061 3059 3059 3056 3051 3049 3046 3047 3046 3046 3027 3023 3029 3028 3028 3029 3028 3028 3028
3021 3025 3030 3033 3039 3042 3045 3047 3048 3051 3054 3056 3056 3059 3058 3058 3057 3057 3057 3058 3058 3058 3058 3059 3059 3058 3058 3055 3055 3053 3049 3043 3041 3041 3040 3035 3019 3016 3020 3018 3017 3016 3016 3017 3017
3026 3029 3035 3039 3042 3044 3047 3049 3054 3056 3055 3055 3055 3056 3056 3057 3057 3057 3058 3058 3057 3057 3057 3057 3057 3055 3054 3053 3052 3050 3044 3038 3036 3036 3032 3026 3008 3001 3007 3006 3003 3002 3004 3004 3006
3033 3038 3041 3043 3045 3046 3049 3052 3053 3055 3055 3055 3056 3057 3057 3058 3058 3058 3058 3058 3057 3056 3056 3056 3052 3051 3050 3049 3048 3045 3040 3032 3029 3030 3028 3019 2996 2993 2991 2992 2992 2989 2989 2989 2991
3040 3044 3047 3048 3050 3052 3053 3054 3054 3055 3056 3058 3058 3058 3059 3060 3058 3058 3058 3057 3056 3054 3054 3051 3051 3048 3047 3045 3044 3042 3038 3031 3029 3026 3023 3014 2987 2980 2979 2981 2980 2976 2972 2974 2978
3045 3047 3047 3048 3052 3052 3053 3054 3055 3055 3057 3062 3060 3061 3060 3059 3059 3058 3057 3057 3054 3052 3050 3048 3047 3046 3044 3042 3041 3034 3033 3029 3026 3024 3017 3016 2994 2970 2972 2971 2970 2965 2961 2960 2966
3048 3049 3049 3049 3050 3052 3055 3056 3056 3057 3062 3065 3062 3062 3061 3062 3062 3059 3056 3054 3053 3051 3051 3048 3045 3043 3042 3041 3038 3031 3028 3025 3021 3019 3016 3007 3009 2965 2968 2962 2962 2960 2956 2955 2957
3052 3054 3054 3055 3055 3055 3055 3057 3058 3061 3064 3064 3064 3063 3063 3062 3061 3059 3058 3056 3052 3049 3047 3045 3044 3043 3041 3037 3032 3028 3024 3018 3013 3014 3014 2996 2999 2966 2966 2961 2953 2953 2954 2953 2951
3055 3056 3057 3058 3058 3057 3057 3059 3062 3060 3066 3067 3065 3064 3063 3063 3062 3060 3057 3054 3052 3049 3047 3045 3045 3042 3038 3033 3029 3026 3023 3018 3016 3017 3005 2994 2993 2969 2968 2962 2953 2947 2949 2950 2947
3061 3060 3059 3058 3059 3060 3059 3062 3061 3064 3064 3065 3065 3065 3065 3063 3062 3059 3057 3055 3053 3051 3048 3047 3045 3041 3037 3032 3029 3025 3023 3023 3026 3019 3000 2992 2986 2971 2967 2959 2951 2948 2948 2948 2949
3065 3062 3061 3060 3060 3061 3062 3061 3063 3064 3065 3065 3066 3066 3064 3062 3062 3059 3058 3057 3054 3051 3051 3048 3045 3041 3035 3031 3028 3024 3020 3020 3017 3008 3003 2984 2980 2972 2964 2957 2953 2948 2948 2949 2950
3066 3065 3063 3062 3061 3061 3062 3060 3064 3065 3066 3068 3067 3066 3064 3063 3062 3059 3058 3057 3055 3053 3051 3050 3045 3040 3036 3032 3029 3026 3021 3017 3016 3013 3000 2983 2981 2975 2963 2955 2950 2946 2945 2948 2948
3069 3066 3064 3063 3063 3063 3062 3063 3066 3067 3068 3069 3067 3066 3065 3064 3063 3061 3061 3059 3056 3054 3052 3049 3048 3042 3036 3033 3030 3025 3021 3018 3014 3009 3002 2993 2986 2980 2968 2958 2946 2943 2944 2947 2948
3070 3068 3066 3064 3065 3064 3065 3066 3068 3068 3069 3069 3068 3067 3066 3065 3064 3062 3060 3059 3057 3055 3052 3050 3046 3040 3037 3035 3032 3028 3025 3020 3016 3012 3005 2999 2992 2980 2971 2958 2949 2947 2944 2944 2946
3072 3070 3068 3067 3065 3065 3067 3068 3069 3069 3069 3069 3068 3068 3067 3066 3066 3063 3061 3059 3058 3056 3054 3052 3049 3042 3037 3037 3034 3030 3028 3024 3017 3012 3007 3002 2996 2982 2974 2961 2953 2949 2948 2942 2943
3073 3070 3070 3070 3068 3067 3068 3069 3070 3070 3069 3069 3069 3068 3067 3066 3066 3064 3061 3059 3057 3056 3054 3053 3050 3047 3046 3044 3038 3035 3030 3027 3020 3015 3010 3006 2999 2986 2978 2967 2962 2957 2956 2949 2949
3075 3074 3073 3070 3070 3070 3068 3069 3069 3070 3070 3069 3068 3068 3067 3065 3064 3062 3061 3059 3058 3057 3055 3053 3050 3047 3045 3043 3038 3037 3034 3029 3024 3020 3014 3008 3002 2996 2985 2980 2970 2966 2964 2961 2956
3077 3074 3072 3073 3071 3069 3069 3068 3068 3068 3069 3068 3068 3067 3066 3065 3063 3061 3061 3059 3058 3057 3055 3054 3051 3047 3043 3042 3038 3037 3037 3033 3028 3022 3018 3012 3007 3004 2996 2986 2978 2973 2971 2967 2968
3078 3076 3072 3068 3067 3069 3070 3068 3068 3067 3068 3067 3066 3066 3065 3064 3062 3060 3060 3059 3057 3056 3055 3054 3051 3049 3043 3042 3038 3037 3036 3033 3031 3026 3020 3017 3015 3010 3003 2993 2987 2984 2982 2980 2981